User: anonymous   Login
Location: Domont
(49.0278°N, 2.3264°E)
Time: 03:47:50
(UTC+00:00)
Language:

Cosmos 1697 Rocket - Orbit

View from above orbital plane
View from above orbital plane
View from above satellite
View from above satellite

Ground track
Ground track

The orbit data is extracted from the following two-line orbital elements,

1 16182U 85097B   22026.52505250  .00000085  00000-0  67105-4 0  9999
2 16182  71.0024  64.1652 0006755   9.9594  94.3738 14.16264479874374
Epoch (UTC): 26 January 2022 12:36:04
Eccentricity: 0.0006755
inclination: 71.0024°
perigee height: 833 km
apogee height: 843 km
right ascension of ascending node: 64.1652°
argument of perigee: 9.9594°
revolutions per day: 14.16264479
mean anomaly at epoch: 94.3738°
orbit number at epoch: 87437

The dashed part of the orbit path shows where the satellite is in the earth's shadow,  

DLR